Regional Weather Roundup
Issued by NWS

Home | Current Version | Previous Version | Text Only | Print | Product List | Glossary Off
Versions: 1 2 3 4 5 6 7 8 9 10 11 12 13 14 15 16 17 18 19 20 21 22 23 24 25 26 27 28 29 30 31 32 33 34 35 36 37 38 39 40 41 42 43 44 45 46 47 48 49 50

000
ASUS43 KMPX 020601
RWRMN
WEATHER ROUNDUP FOR MINNESOTA
NATIONAL WEATHER SERVICE TWIN CITIES/CHANHASSEN MN
100 AM CDT SUN AUG 02 2015


NOTE: "FAIR" INDICATES FEW OR NO CLOUDS BELOW 12,000 FEET WITH NO
SIGNIFICANT WEATHER AND/OR OBSTRUCTIONS TO VISIBILITY. N/A MEANS
CURRENT SKY AND/OR WEATHER CONDITIONS ARE NOT AVAILABLE.

MNZ060>063-068>070-020700-
   Twin Cities Metro

CITY           SKY/WX    TMP DP  RH WIND       PRES   REMARKS
TWIN CITIES    PTCLDY    76  65  68 SW15G23   29.75F
6HR MIN TEMP:  76; 6HR MAX TEMP:  85; 6HR PCP: TRACE;

ST PAUL        PTCLDY    76  65  68 SW14      29.75F
CRYSTAL        CLEAR     78  64  61 SW10G20   29.74F
BLAINE         CLEAR     79  64  61 SW9G17    29.74F
LAKEVILLE      PTCLDY    72  64  78 SW6       29.78F
EDEN PRAIRIE   CLEAR     73  66  78 SW10      29.76F
6HR MIN TEMP:  73; 6HR MAX TEMP:  83;

SOUTH ST PAUL  LGT RAIN  77  64  64 SW10G18   29.76F
LAKE ELMO      LGT RAIN  73  68  83 SW12      29.77F
$$
MNZ001>005-007-008-013>017-022>024-027-028-020700-
   Northwest Minnesota

CITY           SKY/WX    TMP DP  RH WIND       PRES   REMARKS
BEMIDJI        CLOUDY    65  60  81 SW5       29.68S
HALLOCK        LGT RAIN  64  61  88 N12       29.68R
ROSEAU         CLOUDY    61  55  82 N3        29.67F
WARROAD        LGT RAIN  63  59  88 SW12      29.70F
THIEF RVR FALL MOCLDY    68  63  83 CALM      29.67F
CROOKSTON      PTCLDY    68  63  83 CALM      29.67R
FOSSTON        MOCLDY    61  59  94 CALM      29.69R
DETROIT LAKES  CLEAR     68  64  88 S5        29.68F
MOORHEAD       CLEAR     68  64  88 S6        29.65F
PARK RAPIDS    PTCLDY    68  62  81 CALM      29.68F
MAHNOMEN       FAIR      66  61  86 CALM      29.67F
$$
MNZ006-009>011-018-025>026-020700-
   North Central Minnesota

CITY           SKY/WX    TMP DP  RH WIND       PRES   REMARKS
BAUDETTE       LGT RAIN  63  58  83 W9G30     29.71R
FLAG ISLAND      N/A     70  63  78 N3        29.67R
INTL FALLS     MOCLDY    60  56  86 SW3       29.64S
6HR MIN TEMP:  57; 6HR MAX TEMP:  77;

WASKISH        CLOUDY    68  61  77 SW3       29.68R
BIG FORK       MOCLDY    59  57  94 CALM      29.67F
LONGVILLE      PTCLDY    66  63  88 S5        29.68F
GRAND RAPIDS   PTCLDY    64  57  77 S6        29.69F
CRANE LAKE     PTCLDY    55  55 100 S3        29.66F
ORR            MOCLDY    64  54  68 CALM      29.65R
COOK           MOCLDY    63  57  82 CALM      29.68S
WALKER         FAIR      65  60  86 CALM      29.68F
$$
MNZ012-019>021-037-020700-
   Northeast Minnesota

CITY           SKY/WX    TMP DP  RH WIND       PRES   REMARKS
DULUTH         PTCLDY    67  59  75 SW10      29.69F
6HR MIN TEMP:  64; 6HR MAX TEMP:  78;

ELY            MOCLDY    63  54  72 CALM      29.67F
HIBBING        PTCLDY    58  55  90 CALM      29.68F
EVELETH        MOCLDY    63  55  77 W3        29.69F
DULUTH HARBOR  CLEAR     66  63  88 SW5       29.67F
TWO HARBORS    PTCLDY    66  61  82 CALM      29.66F
SILVER BAY     MOCLDY    59  55  88 CALM      29.65F
GRAND MARAIS     N/A     49  44  83 W7        29.63F
G MARAIS ARPRT PTCLDY    59  48  67 SW3       29.69F
$$
MNZ029>031-032-039>041-046>048-054>057-064-020700-
   West Central Minnesota

CITY           SKY/WX    TMP DP  RH WIND       PRES   REMARKS
FERGUS FALLS   CLEAR     72  70  94 S7        29.65F
WHEATON        CLEAR     68  63  83 S9        29.69F
MORRIS         CLEAR     66  64  94 S6        29.71F
ALEXANDRIA     CLEAR     71  66  84 SW8       29.74F
ELBOW LAKE     FAIR      67  65  91 S7        29.69F
WADENA         CLEAR     64  63  94 S6        29.69F
GLENWOOD       CLEAR     68  64  88 SW7       29.73F
APPLETON       CLEAR     72  63  73 S5        29.71F
BENSON         CLEAR     66  63  88 SW5       29.72F
ORTONVILLE     CLEAR     72  63  73 W3        29.71F
MADISON        CLEAR    N/A N/A N/A SW8       29.72F
WILLMAR        FAIR      70  64  83 CALM      29.75F
$$
MNZ033>034-036-042>043-049>051-058-059-020700-
   Central Minnesota

CITY           SKY/WX    TMP DP  RH WIND       PRES   REMARKS
ST CLOUD       PTCLDY    72  66  81 SW9       29.72F
6HR MIN TEMP:  70; 6HR MAX TEMP:  82;

SAUK CENTRE    FAIR      67  64  91 CALM      29.72F
PAYNESVILLE    CLEAR     69  64  84 SE10      29.74F
AITKIN         CLEAR     68  63  83 S6        29.68F
PINE RIVER     CLEAR     61  59  94 CALM      29.72F
BRAINERD       CLEAR     67  63  87 CALM      29.70F
STAPLES        CLEAR     64  63  94 S6        29.70F
LONG PRAIRIE   FAIR      68  64  88 S6        29.73F
LITTLE FALLS   PTCLDY    68  64  88 CALM      29.72F
LITCHFIELD     CLEAR     72  66  83 SW6       29.75F
BUFFALO        CLEAR     73  64  71 S8        29.76F
$$
MNZ037-044-045-052-053-020700-
   East Central Minnesota

CITY           SKY/WX    TMP DP  RH WIND       PRES   REMARKS
PRINCETON      CLEAR     72  66  83 S6        29.73F
MORA           PTCLDY    64  63  94 CALM      29.73F
CAMBRIDGE      PTCLDY    73  63  68 S6        29.71F
RUSH CITY      PTCLDY    68  64  86 S3        29.72F
MOOSE LAKE     PTCLDY    63  61  94 CALM      29.69F
HINCKLEY       FAIR      63  63 100 CALM      29.72F
CLOQUET        CLEAR     66  57  72 SW7       29.69F
MCGREGOR       CLEAR     66  61  82 S3        29.70F
$$
MNZ071>073-080-081-089-090-097-098-020700-
   Southwest Minnesota

CITY           SKY/WX    TMP DP  RH WIND       PRES   REMARKS
MONTEVIDEO     CLEAR     68  63  83 CALM      29.75F
GRANITE FALLS  CLEAR     68  64  86 S7        29.75F
CANBY          CLEAR     72  62  70 SW12G18   29.75F
MARSHALL       CLEAR     75  61  60 SW17      29.77F
REDWOOD FALLS  CLEAR     73  66  78 SW16      29.74F
OLIVIA         CLEAR     68  61  77 S6        29.74F
PIPESTONE      CLEAR     70  66  88 SW8       29.82F
WINDOM         PTCLDY    72  64  78 S12       29.82S
WORTHINGTON    PTCLDY    70  63  78 SW12      29.84S
JACKSON        PTCLDY    72  64  78 SW15      29.84F
TRACY          CLEAR     73  66  78 SW16G22   29.78F
SLAYTON        CLEAR     71  66  85 SW14      29.82F
$$
MNZ065>067-074>077-082>085-091>093-020700-
   South Central Minnesota

CITY           SKY/WX    TMP DP  RH WIND       PRES   REMARKS
MANKATO        CLEAR     73  64  73 SW14      29.79F
NEW ULM        PTCLDY    72  66  83 SW10      29.77F
ST JAMES       PTCLDY    73  68  83 S8        29.80F
FAIRMONT       CLEAR     72  63  73 SW9       29.82F
GLENCOE        PTCLDY    71  66  85 S5        29.76F
FARIBAULT      PTCLDY    72  66  83 S7        29.80F
OWATONNA       PTCLDY    70  66  88 SW7       29.81F
WASECA         PTCLDY    70  64  83 S8        29.82F
ALBERT LEA     CLEAR     72  66  83 SW8       29.83F
$$
MNZ078>079-086>088-094>096-020700-
   Southeast Minnesota

CITY           SKY/WX    TMP DP  RH WIND       PRES   REMARKS
ROCHESTER      PTCLDY    72  67  84 SW14      29.84S
6HR MIN TEMP:  69; 6HR MAX TEMP:  80;

RED WING       PTCLDY    75  66  73 SW9       29.77F
STANTON        PTCLDY    74  66  75 SW9       29.78S
DODGE CENTER   PTCLDY    70  66  88 SW9       29.83F
WINONA         PTCLDY    75  66  73 SW7       29.79F
AUSTIN         CLEAR     72  66  83 SW8       29.84F
PRESTON        PTCLDY    70  66  87 SW10      29.84F
$$
ABBREVIATIONS USED IN REMARKS
   TC - TEMPERATURES IN CELSIUS
  WCI - WIND CHILL INDEX
   HX - HEAT INDEX
  VSB - VISIBILITY
$$



USA.gov is the U.S. government's official web portal to all federal, state and local government web resources and services.